Lander, WY

7:44 AM MST on February 25, 2017 (GMT -0700)
South Pass

Weather History for KFWZ - October, 2012

Change the Weather History Date:

Wednesday, October 3, 2012

  Actual Average (KLND) Record (KLND)
Temperature  
Mean Temperature 38 °F -  
Max Temperature 53 °F 63 °F 86 °F (2010)
Min Temperature 23 °F 37 °F 10 °F (1891)
Degree Days  
Heating Degree Days 27    
Moisture  
Dew Point 18 °F    
Average Humidity 48    
Maximum Humidity 93    
Minimum Humidity 13    
Precipitation  
Precipitation 0.00 in - - ()
Sea Level Pressure  
Sea Level Pressure 30.03 in    
Wind  
Wind Speed 12 mph ()    
Max Wind Speed 30 mph    
Max Gust Speed 39 mph    
Visibility 10.0 miles    
Events      
Averages and records for this station are not official NWS values.
T = Trace of Precipitation, MM = Missing Value Source: Averaged Metar Reports

Daily Weather History Graph

Daily Weather History Graph

Search for Another Location

Airport or City:

Trip Planner

Search our weather history database for the weather conditions in past years. The results will help you decide how hot, cold, wet, or windy it might be!

Date:

Astronomy

Oct. 03, 2012 Rise Set
Actual Time 7:15 AM MDT 6:52 PM MDT
Civil Twilight 6:46 AM MDT 7:20 PM MDT
Nautical Twilight 6:14 AM MDT 7:52 PM MDT
Astronomical Twilight 5:41 AM MDT 8:25 PM MDT
Moon 8:41 PM MDT (10/3) 10:46 AM MDT (10/3)
Length of Visible Light 12h 33m
Length of Day
11h 37m
Waning Gibbous, 88% of the Moon is Illuminated
Oct 3
Waning Gibbous
Oct 8
Last Quarter
Oct 15
New
Oct 21
First Quarter
Oct 29
Full

Hourly Weather History & Observations

Time (MDT) Temp. Windchill Dew Point Humidity Pressure Visibility Wind Dir Wind Speed Gust Speed Precip Events Conditions
12:15 AM 50.0 °F - 23.0 °F 35% 30.01 in 10.0 mi Calm Calm - N/A   Clear
12:35 AM 50.0 °F - 23.0 °F 35% 30.00 in 10.0 mi WSW 6.9 mph - N/A   Clear
12:55 AM 48.2 °F - 24.8 °F 40% 30.00 in 10.0 mi West 4.6 mph - N/A   Clear
1:15 AM 48.2 °F - 24.8 °F 40% 30.01 in 10.0 mi West 5.8 mph - N/A   Clear
1:35 AM 50.0 °F - 23.0 °F 35% 30.00 in 10.0 mi West 4.6 mph - N/A   Clear
1:55 AM 48.2 °F - 23.0 °F 37% 30.00 in 10.0 mi Calm Calm - N/A   Clear
2:15 AM 48.2 °F - 23.0 °F 37% 30.01 in 10.0 mi West 5.8 mph - N/A   Clear
2:35 AM 50.0 °F - 23.0 °F 35% 30.00 in 10.0 mi West 8.1 mph 18.4 mph N/A   Clear
2:55 AM 50.0 °F - 23.0 °F 35% 30.00 in 10.0 mi West 9.2 mph - N/A   Clear
3:15 AM 50.0 °F - 21.2 °F 32% 30.00 in 10.0 mi West 4.6 mph 17.3 mph N/A   Clear
3:35 AM 50.0 °F - 21.2 °F 32% 30.00 in 10.0 mi West 5.8 mph - N/A   Clear
3:55 AM 50.0 °F - 21.2 °F 32% 29.98 in 10.0 mi West 12.7 mph 18.4 mph N/A   Clear
4:15 AM 50.0 °F - 21.2 °F 32% 29.96 in 10.0 mi WSW 15.0 mph 23.0 mph N/A   Clear
4:35 AM 48.2 °F - 19.4 °F 32% 29.96 in 10.0 mi WSW 19.6 mph 27.6 mph N/A   Clear
4:55 AM 50.0 °F - 17.6 °F 28% 29.94 in 10.0 mi West 23.0 mph 35.7 mph N/A   Clear
5:15 AM 48.2 °F - 15.8 °F 27% 29.94 in 10.0 mi WSW 27.6 mph 36.8 mph N/A   Clear
5:35 AM 48.2 °F - 12.2 °F 24% 29.94 in 10.0 mi West 23.0 mph 32.2 mph N/A   Clear
5:55 AM 48.2 °F - 12.2 °F 24% 29.94 in 10.0 mi West 26.5 mph 32.2 mph N/A   Clear
6:15 AM 46.4 °F 38.3 °F 12.2 °F 25% 29.93 in 10.0 mi WSW 23.0 mph 29.9 mph N/A   Clear
6:35 AM 46.4 °F 44.3 °F 12.2 °F 25% 29.98 in 10.0 mi NNE 4.6 mph 17.3 mph N/A   Clear
6:55 AM 46.4 °F 42.9 °F 12.2 °F 25% 29.98 in 10.0 mi WNW 6.9 mph - N/A   Clear
7:15 AM 46.4 °F 43.5 °F 12.2 °F 25% 29.98 in 10.0 mi West 5.8 mph - N/A   Clear
7:35 AM 44.6 °F 40.2 °F 8.6 °F 23% 29.98 in 10.0 mi WSW 8.1 mph - N/A   Clear
7:55 AM 46.4 °F 45.2 °F 8.6 °F 22% 29.98 in 10.0 mi SW 3.5 mph - N/A   Clear
8:15 AM 46.4 °F 42.4 °F 8.6 °F 22% 29.97 in 10.0 mi West 8.1 mph - N/A   Clear
8:35 AM 48.2 °F - 1.4 °F 15% 29.96 in 10.0 mi West 12.7 mph 23.0 mph N/A   Clear
8:55 AM 50.0 °F - 1.4 °F 14% 29.96 in 10.0 mi West 18.4 mph 24.2 mph N/A   Clear
9:15 AM 50.0 °F - 1.4 °F 14% 29.98 in 10.0 mi West 17.3 mph 31.1 mph N/A   Clear
9:55 AM 50.0 °F - 5.0 °F 16% 29.99 in 10.0 mi West 12.7 mph 25.3 mph N/A   Clear
10:15 AM 50.0 °F - 5.0 °F 16% 30.00 in 10.0 mi WSW 17.3 mph 26.5 mph N/A   Clear
10:35 AM 51.8 °F - 5.0 °F 15% 30.00 in 10.0 mi WSW 15.0 mph 24.2 mph N/A   Clear
10:55 AM 51.8 °F - 3.2 °F 14% 30.00 in 10.0 mi West 17.3 mph 24.2 mph N/A   Clear
11:15 AM 51.8 °F - 3.2 °F 14% 30.01 in 10.0 mi WNW 18.4 mph 29.9 mph N/A   Clear
11:35 AM 51.8 °F - 3.2 °F 14% 30.02 in 10.0 mi West 18.4 mph 28.8 mph N/A   Clear
11:55 AM 51.8 °F - 3.2 °F 14% 30.03 in 10.0 mi West 15.0 mph 29.9 mph N/A   Clear
12:15 PM 53.6 °F - 3.2 °F 13% 30.03 in 10.0 mi WNW 13.8 mph 25.3 mph N/A   Clear
12:35 PM 53.6 °F - 8.6 °F 16% 30.04 in 10.0 mi North 6.9 mph 20.7 mph N/A   Clear
1:15 PM 46.4 °F 39.2 °F 30.2 °F 53% 30.04 in 10.0 mi NNE 18.4 mph 25.3 mph N/A   Clear
1:35 PM 44.6 °F 38.1 °F 30.2 °F 57% 30.04 in 10.0 mi North 13.8 mph 23.0 mph N/A   Clear
1:55 PM 44.6 °F 36.4 °F 28.4 °F 53% 30.05 in 10.0 mi NNE 20.7 mph 25.3 mph N/A   Clear
2:15 PM 42.8 °F 34.3 °F 30.2 °F 61% 30.05 in 10.0 mi North 19.6 mph 26.5 mph N/A   Clear
2:35 PM 39.2 °F 30.2 °F 28.4 °F 65% 30.06 in 10.0 mi North 17.3 mph 32.2 mph N/A   Clear
2:55 PM 39.2 °F 29.6 °F 26.6 °F 61% 30.07 in 10.0 mi North 19.6 mph 31.1 mph N/A   Clear
3:15 PM 37.4 °F 26.6 °F 26.6 °F 65% 30.09 in 10.0 mi NNE 21.9 mph 28.8 mph N/A   Clear
3:35 PM 37.4 °F 26.1 °F 26.6 °F 65% 30.09 in 10.0 mi North 24.2 mph 34.5 mph N/A   Clear
3:55 PM 35.6 °F 23.7 °F 26.6 °F 70% 30.10 in 10.0 mi North 24.2 mph 33.4 mph N/A   Clear
4:15 PM 33.8 °F 20.8 °F 24.8 °F 70% 30.11 in 10.0 mi North 26.5 mph 33.4 mph N/A   Clear
4:35 PM 33.8 °F 20.1 °F 23.0 °F 65% 30.12 in 10.0 mi North 29.9 mph 38.0 mph N/A   Clear
4:55 PM 32.0 °F 18.1 °F 23.0 °F 69% 30.14 in 10.0 mi North 27.6 mph 39.1 mph N/A   Clear
5:15 PM 32.0 °F 18.6 °F 23.0 °F 69% 30.15 in 10.0 mi North 25.3 mph 35.7 mph N/A   Clear
5:35 PM 32.0 °F 19.5 °F 23.0 °F 69% 30.17 in 10.0 mi North 21.9 mph 32.2 mph N/A   Clear
5:55 PM 30.2 °F 16.5 °F 23.0 °F 75% 30.17 in 10.0 mi North 24.2 mph 33.4 mph N/A   Scattered Clouds
6:15 PM 30.2 °F 17.8 °F 23.0 °F 75% 30.20 in 10.0 mi North 19.6 mph 29.9 mph N/A   Mostly Cloudy
6:35 PM 28.4 °F 16.2 °F 23.0 °F 80% 30.20 in 10.0 mi North 17.3 mph 31.1 mph N/A   Overcast
6:55 PM 28.4 °F 15.8 °F 23.0 °F 80% 30.21 in 10.0 mi North 18.4 mph 27.6 mph N/A   Overcast
7:15 PM 28.4 °F 14.7 °F 23.0 °F 80% 30.21 in 10.0 mi North 21.9 mph 29.9 mph N/A   Overcast
7:35 PM 26.6 °F 13.4 °F 23.0 °F 86% - 10.0 mi North 18.4 mph 27.6 mph N/A   Mostly Cloudy
7:55 PM 26.6 °F 12.4 °F 23.0 °F 86% - 10.0 mi North 21.9 mph 28.8 mph N/A   Scattered Clouds
8:15 PM 26.6 °F 13.1 °F 23.0 °F 86% - 10.0 mi North 19.6 mph 28.8 mph N/A   Scattered Clouds
8:35 PM 26.6 °F 12.4 °F 23.0 °F 86% - 10.0 mi North 21.9 mph 29.9 mph N/A   Scattered Clouds
8:55 PM 26.6 °F 12.4 °F 23.0 °F 86% - 10.0 mi North 21.9 mph 31.1 mph N/A   Scattered Clouds
9:15 PM 26.6 °F 11.7 °F 23.0 °F 86% - 10.0 mi North 24.2 mph 28.8 mph N/A   Scattered Clouds
9:35 PM 26.6 °F 13.4 °F 21.2 °F 80% - 10.0 mi North 18.4 mph 28.8 mph N/A   Scattered Clouds
10:15 PM 26.6 °F 13.8 °F 21.2 °F 80% - 10.0 mi North 17.3 mph 23.0 mph N/A   Scattered Clouds
10:35 PM 24.8 °F 11.1 °F 21.2 °F 86% - 10.0 mi North 18.4 mph 25.3 mph N/A   Scattered Clouds
10:55 PM 24.8 °F 11.5 °F 21.2 °F 86% - 10.0 mi North 17.3 mph 23.0 mph N/A   Mostly Cloudy
11:15 PM 24.8 °F 11.9 °F 21.2 °F 86% - 10.0 mi North 16.1 mph 21.9 mph N/A   Scattered Clouds
11:35 PM 23.0 °F 10.1 °F 21.2 °F 93% - 10.0 mi North 15.0 mph 23.0 mph N/A   Clear
11:55 PM 23.0 °F 8.7 °F 21.2 °F 93% - 10.0 mi North 18.4 mph 21.9 mph N/A   Clear